| time (UTC) | temp F | wind direction | speed MPH | gust MPH | rain 1hr in | rain 24hr in | rain mn in | humidity % | barometer mb |
| 20260905154017 | 90 | 215 | 4.0 | 9.0 | 0.00 | 0.00 | 0.00 | 49 | 1014.4 |
| 20260905153517 | 90 | 233 | 5.0 | 9.0 | 0.00 | 0.00 | 0.00 | 50 | 1014.4 |
| 20260905153034 | 89 | 182 | 4.0 | 10.0 | 0.00 | 0.00 | 0.00 | 51 | 1014.4 |
| 20260905152512 | 89 | 262 | 4.0 | 12.0 | 0.00 | 0.00 | 0.00 | 51 | 1014.4 |
| 20260905152010 | 88 | 180 | 5.0 | 13.0 | 0.00 | 0.00 | 0.00 | 52 | 1014.4 |
| 20260905151530 | 88 | 188 | 5.0 | 13.0 | 0.00 | 0.00 | 0.00 | 52 | 1014.4 |
| 20260905151014 | 88 | 190 | 7.0 | 11.0 | 0.00 | 0.00 | 0.00 | 53 | 1014.4 |
| 20260905150519 | 87 | 142 | 2.0 | 12.0 | 0.00 | 0.00 | 0.00 | 53 | 1014.4 |
| 20260905150031 | 87 | 188 | 5.0 | 12.0 | 0.00 | 0.00 | 0.00 | 54 | 1014.4 |
| 20260905145518 | 87 | 187 | 2.0 | 10.0 | 0.00 | 0.00 | 0.00 | 54 | 1014.3 |
| 20260905145016 | 86 | 212 | 3.0 | 10.0 | 0.00 | 0.00 | 0.00 | 55 | 1014.2 |
| 20260905144534 | 86 | 217 | 4.0 | 9.0 | 0.00 | 0.00 | 0.00 | 56 | 1014.2 |
| 20260905144017 | 85 | 189 | 5.0 | 9.0 | 0.00 | 0.00 | 0.00 | 56 | 1014.1 |
| 20260905143520 | 85 | 155 | 2.0 | 8.0 | 0.00 | 0.00 | 0.00 | 57 | 1014.1 |
| 20260905143025 | 84 | 202 | 2.0 | 10.0 | 0.00 | 0.00 | 0.00 | 58 | 1014.1 |
| 20260905142512 | 84 | 200 | 3.0 | 11.0 | 0.00 | 0.00 | 0.00 | 58 | 1014.2 |
| 20260905142014 | 83 | 155 | 7.0 | 11.0 | 0.00 | 0.00 | 0.00 | 59 | 1014.1 |
| 20260905141503 | 82 | 213 | 1.0 | 7.0 | 0.00 | 0.00 | 0.00 | 61 | 1014.1 |
| 20260905141002 | 82 | 183 | 2.0 | 7.0 | 0.00 | 0.00 | 0.00 | 61 | 1014.1 |
| 20260905140504 | 81 | 166 | 2.0 | 7.0 | 0.00 | 0.00 | 0.00 | 62 | 1014.0 |
| 20260905140007 | 81 | 360 | 2.0 | 8.0 | 0.00 | 0.00 | 0.00 | 62 | 1014.0 |
| 20260905135506 | 81 | 166 | 4.0 | 10.0 | 0.00 | 0.00 | 0.00 | 62 | 1013.9 |
| 20260905135009 | 81 | 168 | 4.0 | 10.0 | 0.00 | 0.00 | 0.00 | 62 | 1013.9 |
| 20260905134513 | 80 | 172 | 6.0 | 9.0 | 0.00 | 0.00 | 0.00 | 63 | 1013.8 |
| 20260905134011 | 80 | 153 | 1.0 | 8.0 | 0.00 | 0.00 | 0.00 | 64 | 1013.8 |
| 20260905133512 | 80 | 144 | 2.0 | 8.0 | 0.00 | 0.00 | 0.00 | 64 | 1013.8 |
| 20260905133023 | 79 | 150 | 1.0 | 6.0 | 0.00 | 0.00 | 0.00 | 65 | 1013.8 |
| 20260905132514 | 79 | 173 | 0.0 | 5.0 | 0.00 | 0.00 | 0.00 | 65 | 1013.7 |
| 20260905132016 | 79 | 134 | 1.0 | 4.0 | 0.00 | 0.00 | 0.00 | 66 | 1013.8 |
| 20260905131504 | 78 | 150 | 1.0 | 4.0 | 0.00 | 0.00 | 0.00 | 66 | 1013.7 |
| 20260905131005 | 78 | 160 | 2.0 | 4.0 | 0.00 | 0.00 | 0.00 | 66 | 1013.7 |
| 20260905130507 | 78 | 150 | 0.0 | 2.0 | 0.00 | 0.00 | 0.00 | 66 | 1013.6 |
| 20260905130012 | 78 | 151 | 0.0 | 4.0 | 0.00 | 0.00 | 0.00 | 66 | 1013.5 |
| 20260905125508 | 78 | 157 | 0.0 | 5.0 | 0.00 | 0.00 | 0.00 | 66 | 1013.3 |
| 20260905125012 | 78 | 161 | 1.0 | 5.0 | 0.00 | 0.00 | 0.00 | 67 | 1013.3 |
| 20260905124522 | 77 | 178 | 0.0 | 2.0 | 0.00 | 0.00 | 0.00 | 68 | 1013.3 |
| 20260905124013 | 77 | 179 | 0.0 | 2.0 | 0.00 | 0.00 | 0.00 | 68 | 1013.3 |
| 20260905123512 | 77 | 155 | 0.0 | 0.0 | 0.00 | 0.00 | 0.00 | 69 | 1013.2 |
| 20260905123027 | 76 | 360 | 0.0 | 0.0 | 0.00 | 0.00 | 0.00 | 68 | 1013.3 |
| 20260905122515 | 76 | 163 | 0.0 | 0.0 | 0.00 | 0.00 | 0.00 | 68 | 1013.1 |
| 20260905122006 | 76 | 156 | 0.0 | 1.0 | 0.00 | 0.00 | 0.00 | 68 | 1013.1 |
| 20260905121507 | 76 | 181 | 0.0 | 2.0 | 0.00 | 0.00 | 0.00 | 68 | 1013.0 |
| 20260905121007 | 77 | 169 | 0.0 | 5.0 | 0.00 | 0.00 | 0.00 | 68 | 1012.9 |
| 20260905120506 | 77 | 180 | 1.0 | 5.0 | 0.00 | 0.00 | 0.00 | 68 | 1012.8 |
| 20260905120013 | 77 | 206 | 3.0 | 5.0 | 0.00 | 0.00 | 0.00 | 67 | 1012.7 |
| 20260905115512 | 77 | 161 | 2.0 | 4.0 | 0.00 | 0.00 | 0.00 | 67 | 1012.7 |
| 20260905115010 | 77 | 167 | 0.0 | 3.0 | 0.00 | 0.00 | 0.00 | 67 | 1012.7 |
| 20260905114524 | 78 | 183 | 0.0 | 4.0 | 0.00 | 0.00 | 0.00 | 66 | 1012.8 |
| 20260905114013 | 78 | 167 | 2.0 | 6.0 | 0.00 | 0.00 | 0.00 | 66 | 1012.7 |
| 20260905113515 | 78 | 167 | 2.0 | 6.0 | 0.00 | 0.00 | 0.00 | 65 | 1012.7 |
| 20260905113030 | 78 | 181 | 2.0 | 8.0 | 0.00 | 0.00 | 0.00 | 65 | 1012.7 |
| 20260905112515 | 78 | 360 | 4.0 | 8.0 | 0.00 | 0.00 | 0.00 | 64 | 1012.7 |
| 20260905112006 | 79 | 202 | 4.0 | 8.0 | 0.00 | 0.00 | 0.00 | 64 | 1012.8 |
| 20260905111509 | 79 | 171 | 4.0 | 11.0 | 0.00 | 0.00 | 0.00 | 64 | 1012.8 |
| 20260905111007 | 79 | 165 | 4.0 | 12.0 | 0.00 | 0.00 | 0.00 | 64 | 1012.8 |
| 20260905110514 | 79 | 178 | 4.0 | 12.0 | 0.00 | 0.00 | 0.00 | 64 | 1012.7 |
| 20260905110020 | 79 | 166 | 4.0 | 10.0 | 0.00 | 0.00 | 0.00 | 63 | 1012.7 |
| 20260905105512 | 79 | 152 | 5.0 | 9.0 | 0.00 | 0.00 | 0.00 | 63 | 1012.7 |
| 20260905105014 | 79 | 160 | 4.0 | 8.0 | 0.00 | 0.00 | 0.00 | 63 | 1012.8 |
| 20260905104528 | 80 | 182 | 4.0 | 9.0 | 0.00 | 0.00 | 0.00 | 63 | 1012.9 |
| 20260905104015 | 80 | 163 | 5.0 | 8.0 | 0.00 | 0.00 | 0.00 | 62 | 1012.9 |
| 20260905103518 | 80 | 166 | 4.0 | 8.0 | 0.00 | 0.00 | 0.00 | 62 | 1012.9 |
| 20260905103036 | 80 | 161 | 3.0 | 8.0 | 0.00 | 0.00 | 0.00 | 62 | 1012.9 |
| 20260905102507 | 80 | 188 | 4.0 | 10.0 | 0.00 | 0.00 | 0.00 | 61 | 1012.8 |
| 20260905102007 | 80 | 155 | 4.0 | 10.0 | 0.00 | 0.00 | 0.00 | 61 | 1012.8 |
| 20260905101519 | 81 | 177 | 3.0 | 7.0 | 0.00 | 0.00 | 0.00 | 61 | 1012.9 |
| 20260905101010 | 81 | 191 | 3.0 | 10.0 | 0.00 | 0.00 | 0.00 | 61 | 1013.0 |
| 20260905100510 | 81 | 165 | 4.0 | 10.0 | 0.00 | 0.00 | 0.00 | 60 | 1012.9 |
| 20260905100028 | 81 | 191 | 4.0 | 10.0 | 0.00 | 0.00 | 0.00 | 60 | 1012.9 |
| 20260905095513 | 81 | 152 | 6.0 | 14.0 | 0.00 | 0.00 | 0.00 | 60 | 1012.9 |
| 20260905095016 | 81 | 173 | 3.0 | 14.0 | 0.00 | 0.00 | 0.00 | 60 | 1013.0 |
| 20260905094530 | 82 | 181 | 5.0 | 9.0 | 0.00 | 0.00 | 0.00 | 59 | 1013.0 |
| 20260905094018 | 82 | 171 | 4.0 | 10.0 | 0.00 | 0.00 | 0.00 | 59 | 1013.0 |
| 20260905093521 | 82 | 171 | 4.0 | 10.0 | 0.00 | 0.00 | 0.00 | 59 | 1013.1 |
| 20260905093008 | 82 | 171 | 3.0 | 11.0 | 0.00 | 0.00 | 0.00 | 59 | 1013.2 |
| 20260905092508 | 82 | 171 | 4.0 | 11.0 | 0.00 | 0.00 | 0.00 | 59 | 1013.2 |
| 20260905092010 | 82 | 153 | 5.0 | 12.0 | 0.00 | 0.00 | 0.00 | 58 | 1013.1 |
| 20260905091518 | 82 | 142 | 6.0 | 11.0 | 0.00 | 0.00 | 0.00 | 58 | 1013.0 |
| 20260905091010 | 82 | 189 | 5.0 | 11.0 | 0.00 | 0.00 | 0.00 | 58 | 1013.0 |
| 20260905090512 | 82 | 360 | 4.0 | 10.0 | 0.00 | 0.00 | 0.00 | 58 | 1013.0 |
| 20260905090024 | 83 | 162 | 4.0 | 10.0 | 0.00 | 0.00 | 0.00 | 58 | 1013.0 |
| 20260905085517 | 83 | 167 | 5.0 | 10.0 | 0.00 | 0.00 | 0.00 | 58 | 1013.0 |
| 20260905085017 | 83 | 142 | 4.0 | 13.0 | 0.00 | 0.00 | 0.00 | 58 | 1013.0 |
| 20260905084529 | 83 | 164 | 6.0 | 14.0 | 0.00 | 0.00 | 0.00 | 58 | 1013.1 |
| 20260905084017 | 83 | 186 | 5.0 | 15.0 | 0.00 | 0.00 | 0.00 | 58 | 1013.0 |
| 20260905083517 | 83 | 173 | 5.0 | 15.0 | 0.00 | 0.00 | 0.00 | 58 | 1013.0 |
| 20260905083016 | 83 | 173 | 5.0 | 13.0 | 0.00 | 0.00 | 0.00 | 58 | 1013.0 |
| 20260905082510 | 82 | 165 | 6.0 | 11.0 | 0.00 | 0.00 | 0.00 | 59 | 1013.0 |
| 20260905082010 | 82 | 155 | 4.0 | 9.0 | 0.00 | 0.00 | 0.00 | 59 | 1013.1 |
| 20260905081524 | 82 | 360 | 4.0 | 9.0 | 0.00 | 0.00 | 0.00 | 59 | 1013.0 |
| 20260905081013 | 82 | 182 | 5.0 | 9.0 | 0.00 | 0.00 | 0.00 | 59 | 1013.0 |
| 20260905080513 | 83 | 171 | 3.0 | 10.0 | 0.00 | 0.00 | 0.00 | 59 | 1013.0 |
| 20260905080038 | 83 | 360 | 5.0 | 11.0 | 0.00 | 0.00 | 0.00 | 58 | 1013.1 |
| 20260905075517 | 83 | 167 | 6.0 | 11.0 | 0.00 | 0.00 | 0.00 | 58 | 1013.1 |
| 20260905075016 | 83 | 178 | 5.0 | 12.0 | 0.00 | 0.00 | 0.00 | 58 | 1013.2 |
| 20260905074532 | 83 | 152 | 5.0 | 12.0 | 0.00 | 0.00 | 0.00 | 58 | 1013.2 |
| 20260905074016 | 83 | 171 | 5.0 | 11.0 | 0.00 | 0.00 | 0.00 | 58 | 1013.1 |
| 20260905073509 | 83 | 173 | 6.0 | 12.0 | 0.00 | 0.00 | 0.00 | 58 | 1013.1 |
| 20260905073017 | 83 | 157 | 5.0 | 12.0 | 0.00 | 0.00 | 0.00 | 57 | 1013.1 |
| 20260905072513 | 83 | 188 | 4.0 | 12.0 | 0.00 | 0.00 | 0.00 | 57 | 1013.1 |
| 20260905072011 | 84 | 188 | 5.0 | 16.0 | 0.00 | 0.00 | 0.00 | 57 | 1013.1 |
| 20260905071523 | 84 | 192 | 6.0 | 16.0 | 0.00 | 0.00 | 0.00 | 57 | 1013.1 |
| 20260905071015 | 84 | 155 | 8.0 | 15.0 | 0.00 | 0.00 | 0.00 | 56 | 1013.1 |
| 20260905070516 | 84 | 180 | 6.0 | 11.0 | 0.00 | 0.00 | 0.00 | 57 | 1013.1 |
| 20260905070058 | 84 | 117 | 6.0 | 11.0 | 0.00 | 0.00 | 0.00 | 57 | 1013.3 |
| 20260905065515 | 84 | 159 | 5.0 | 10.0 | 0.00 | 0.00 | 0.00 | 57 | 1013.2 |
| 20260905065019 | 84 | 183 | 5.0 | 10.0 | 0.00 | 0.00 | 0.00 | 57 | 1013.1 |
| 20260905064532 | 84 | 156 | 4.0 | 10.0 | 0.00 | 0.00 | 0.00 | 57 | 1013.2 |
| 20260905064020 | 84 | 144 | 4.0 | 10.0 | 0.00 | 0.00 | 0.00 | 57 | 1013.2 |
| 20260905063508 | 84 | 171 | 6.0 | 12.0 | 0.00 | 0.00 | 0.00 | 57 | 1013.2 |
| 20260905063018 | 84 | 146 | 7.0 | 12.0 | 0.00 | 0.00 | 0.00 | 57 | 1013.2 |
| 20260905062518 | 84 | 142 | 6.0 | 11.0 | 0.00 | 0.00 | 0.00 | 57 | 1013.2 |
| 20260905062014 | 84 | 146 | 5.0 | 11.0 | 0.00 | 0.00 | 0.00 | 57 | 1013.1 |
| 20260905061532 | 84 | 162 | 4.0 | 13.0 | 0.00 | 0.00 | 0.00 | 57 | 1013.0 |
| 20260905061017 | 84 | 144 | 7.0 | 13.0 | 0.00 | 0.00 | 0.00 | 56 | 1013.0 |
| 20260905060516 | 84 | 143 | 7.0 | 13.0 | 0.00 | 0.00 | 0.00 | 56 | 1012.8 |
| 20260905060032 | 84 | 156 | 7.0 | 15.0 | 0.00 | 0.00 | 0.00 | 56 | 1012.9 |
| 20260905055517 | 85 | 155 | 7.0 | 15.0 | 0.00 | 0.00 | 0.00 | 56 | 1012.8 |
| 20260905055015 | 85 | 157 | 7.0 | 13.0 | 0.00 | 0.00 | 0.00 | 56 | 1012.8 |
| 20260905054546 | 85 | 173 | 6.0 | 12.0 | 0.00 | 0.00 | 0.00 | 56 | 1012.7 |
| 20260905054008 | 85 | 144 | 7.0 | 15.0 | 0.00 | 0.00 | 0.00 | 56 | 1012.6 |
| 20260905053511 | 85 | 140 | 7.0 | 15.0 | 0.00 | 0.00 | 0.00 | 56 | 1012.5 |
| 20260905053031 | 85 | 150 | 9.0 | 15.0 | 0.00 | 0.00 | 0.00 | 56 | 1012.5 |
| 20260905052503 | 85 | 143 | 9.0 | 15.0 | 0.00 | 0.00 | 0.00 | 56 | 1012.6 |
| 20260905052004 | 85 | 159 | 9.0 | 14.0 | 0.00 | 0.00 | 0.00 | 56 | 1012.7 |
| 20260905051504 | 85 | 218 | 8.0 | 14.0 | 0.00 | 0.00 | 0.00 | 56 | 1012.7 |
| 20260905051005 | 85 | 160 | 8.0 | 14.0 | 0.00 | 0.00 | 0.00 | 56 | 1012.9 |
| 20260905050508 | 85 | 155 | 5.0 | 12.0 | 0.00 | 0.00 | 0.00 | 56 | 1013.0 |
| 20260905050009 | 85 | 162 | 6.0 | 16.0 | 0.00 | 0.00 | 0.00 | 56 | 1013.0 |
| 20260905045509 | 85 | 155 | 7.0 | 16.0 | 0.00 | 0.00 | 0.00 | 56 | 1012.9 |
| 20260905045014 | 85 | 169 | 7.0 | 14.0 | 0.00 | 0.00 | 0.00 | 56 | 1012.9 |
| 20260905044521 | 85 | 186 | 7.0 | 14.0 | 0.00 | 0.00 | 0.00 | 56 | 1013.0 |
| 20260905044011 | 85 | 159 | 8.0 | 13.0 | 0.00 | 0.00 | 0.00 | 56 | 1013.1 |
| 20260905043512 | 85 | 139 | 6.0 | 13.0 | 0.00 | 0.00 | 0.00 | 56 | 1013.2 |
| 20260905043031 | 85 | 131 | 7.0 | 13.0 | 0.00 | 0.00 | 0.00 | 55 | 1013.2 |
| 20260905042504 | 85 | 360 | 7.0 | 14.0 | 0.00 | 0.00 | 0.00 | 55 | 1013.2 |
| 20260905042003 | 85 | 117 | 7.0 | 14.0 | 0.00 | 0.00 | 0.00 | 55 | 1013.3 |
| 20260905041506 | 85 | 147 | 6.0 | 12.0 | 0.00 | 0.00 | 0.00 | 55 | 1013.3 |
| 20260905041007 | 85 | 151 | 6.0 | 12.0 | 0.00 | 0.00 | 0.00 | 55 | 1013.2 |
| 20260905040507 | 85 | 122 | 6.0 | 12.0 | 0.00 | 0.00 | 0.00 | 55 | 1013.2 |
| 20260905040018 | 85 | 123 | 5.0 | 10.0 | 0.00 | 0.00 | 0.00 | 54 | 1013.2 |
| 20260905035513 | 85 | 145 | 6.0 | 12.0 | 0.00 | 0.00 | 0.00 | 54 | 1013.3 |
| 20260905035011 | 85 | 128 | 7.0 | 12.0 | 0.00 | 0.00 | 0.00 | 54 | 1013.2 |
| 20260905034532 | 85 | 131 | 7.0 | 12.0 | 0.00 | 0.00 | 0.00 | 53 | 1013.3 |
| 20260905034014 | 86 | 360 | 4.0 | 12.0 | 0.00 | 0.00 | 0.00 | 53 | 1013.4 |
| 20260905033516 | 86 | 140 | 5.0 | 12.0 | 0.00 | 0.00 | 0.00 | 53 | 1013.4 |
| 20260905033004 | 86 | 163 | 5.0 | 12.0 | 0.00 | 0.00 | 0.00 | 53 | 1013.3 |
| 20260905032503 | 86 | 123 | 7.0 | 12.0 | 0.00 | 0.00 | 0.00 | 52 | 1013.2 |
| 20260905032006 | 86 | 144 | 5.0 | 13.0 | 0.00 | 0.00 | 0.00 | 52 | 1013.1 |
| 20260905031515 | 86 | 130 | 8.0 | 12.0 | 0.00 | 0.00 | 0.00 | 52 | 1013.1 |
| 20260905031008 | 86 | 126 | 4.0 | 11.0 | 0.00 | 0.00 | 0.00 | 51 | 1013.0 |
| 20260905030507 | 87 | 103 | 5.0 | 11.0 | 0.00 | 0.00 | 0.00 | 51 | 1013.1 |
| 20260905030018 | 87 | 140 | 5.0 | 8.0 | 0.00 | 0.00 | 0.00 | 51 | 1013.1 |
| 20260905025511 | 87 | 127 | 5.0 | 9.0 | 0.00 | 0.00 | 0.00 | 50 | 1012.9 |
| 20260905025016 | 87 | 139 | 3.0 | 9.0 | 0.00 | 0.00 | 0.00 | 50 | 1012.9 |
| 20260905024529 | 87 | 159 | 4.0 | 10.0 | 0.00 | 0.00 | 0.00 | 50 | 1013.0 |
| 20260905024015 | 88 | 126 | 6.0 | 10.0 | 0.00 | 0.00 | 0.00 | 49 | 1012.9 |
| 20260905023504 | 88 | 133 | 4.0 | 8.0 | 0.00 | 0.00 | 0.00 | 49 | 1012.9 |
| 20260905023007 | 88 | 127 | 4.0 | 8.0 | 0.00 | 0.00 | 0.00 | 48 | 1012.9 |
| 20260905022508 | 89 | 111 | 4.0 | 8.0 | 0.00 | 0.00 | 0.00 | 48 | 1012.9 |
| 20260905022007 | 89 | 138 | 2.0 | 9.0 | 0.00 | 0.00 | 0.00 | 48 | 1012.7 |
| 20260905021513 | 89 | 134 | 4.0 | 9.0 | 0.00 | 0.00 | 0.00 | 48 | 1012.7 |
| 20260905021012 | 89 | 128 | 5.0 | 10.0 | 0.00 | 0.00 | 0.00 | 47 | 1012.6 |
| 20260905020509 | 89 | 146 | 5.0 | 10.0 | 0.00 | 0.00 | 0.00 | 47 | 1012.5 |
| 20260905020026 | 89 | 127 | 3.0 | 11.0 | 0.00 | 0.00 | 0.00 | 47 | 1012.3 |
| 20260905015514 | 90 | 148 | 6.0 | 11.0 | 0.00 | 0.00 | 0.00 | 46 | 1012.1 |
| 20260905015013 | 90 | 148 | 6.0 | 11.0 | 0.00 | 0.00 | 0.00 | 46 | 1012.1 |
| 20260905014530 | 90 | 137 | 5.0 | 9.0 | 0.00 | 0.00 | 0.00 | 46 | 1012.0 |
| 20260905014014 | 90 | 136 | 5.0 | 9.0 | 0.00 | 0.00 | 0.00 | 45 | 1012.0 |
| 20260905013506 | 90 | 133 | 6.0 | 10.0 | 0.00 | 0.00 | 0.00 | 45 | 1011.9 |
| 20260905013007 | 91 | 133 | 4.0 | 11.0 | 0.00 | 0.00 | 0.00 | 44 | 1011.7 |
| 20260905012506 | 91 | 107 | 3.0 | 11.0 | 0.00 | 0.00 | 0.00 | 44 | 1011.7 |
| 20260905012010 | 91 | 126 | 5.0 | 11.0 | 0.00 | 0.00 | 0.00 | 44 | 1011.6 |
| 20260905011519 | 92 | 143 | 5.0 | 11.0 | 0.00 | 0.00 | 0.00 | 43 | 1011.6 |
| 20260905011011 | 92 | 140 | 6.0 | 10.0 | 0.00 | 0.00 | 0.00 | 42 | 1011.6 |
| 20260905010511 | 92 | 140 | 3.0 | 11.0 | 0.00 | 0.00 | 0.00 | 42 | 1011.6 |
| 20260905010022 | 92 | 144 | 4.0 | 11.0 | 0.00 | 0.00 | 0.00 | 42 | 1011.7 |
| 20260905005514 | 93 | 113 | 5.0 | 12.0 | 0.00 | 0.00 | 0.00 | 41 | 1011.7 |
| 20260905005017 | 93 | 111 | 5.0 | 12.0 | 0.00 | 0.00 | 0.00 | 41 | 1011.6 |
| 20260905004529 | 93 | 153 | 7.0 | 11.0 | 0.00 | 0.00 | 0.00 | 40 | 1011.5 |
| 20260905004005 | 93 | 126 | 5.0 | 12.0 | 0.00 | 0.00 | 0.00 | 40 | 1011.4 |
| 20260905003509 | 94 | 124 | 6.0 | 14.0 | 0.00 | 0.00 | 0.00 | 39 | 1011.4 |
| 20260905003012 | 94 | 155 | 7.0 | 14.0 | 0.00 | 0.00 | 0.00 | 39 | 1011.4 |
| 20260905002510 | 94 | 148 | 7.0 | 15.0 | 0.00 | 0.00 | 0.00 | 39 | 1011.4 |
| 20260905002009 | 95 | 146 | 5.0 | 15.0 | 0.00 | 0.00 | 0.00 | 38 | 1011.5 |
| 20260905001520 | 95 | 133 | 10.0 | 15.0 | 0.00 | 0.00 | 0.00 | 38 | 1011.5 |
| 20260905001011 | 95 | 144 | 6.0 | 14.0 | 0.00 | 0.00 | 0.00 | 37 | 1011.5 |
| 20260905000515 | 96 | 155 | 7.0 | 16.0 | 0.00 | 0.00 | 0.00 | 37 | 1011.4 |
| 20260905000027 | 96 | 124 | 9.0 | 19.0 | 0.00 | 0.00 | 0.00 | 37 | 1011.2 |
| 20260904235515 | 96 | 146 | 10.0 | 19.0 | 0.00 | 0.00 | 0.00 | 36 | 1011.3 |
| 20260904235015 | 97 | 129 | 10.0 | 17.0 | 0.00 | 0.00 | 0.00 | 35 | 1011.3 |
| 20260904234522 | 97 | 93 | 9.0 | 15.0 | 0.00 | 0.00 | 0.00 | 34 | 1011.2 |
| 20260904234007 | 97 | 132 | 6.0 | 13.0 | 0.00 | 0.00 | 0.00 | 35 | 1011.1 |
| 20260904233505 | 97 | 162 | 5.0 | 17.0 | 0.00 | 0.00 | 0.00 | 35 | 1011.2 |
| 20260904233014 | 97 | 105 | 10.0 | 17.0 | 0.00 | 0.00 | 0.00 | 34 | 1011.2 |
| 20260904232512 | 97 | 138 | 12.0 | 16.0 | 0.00 | 0.00 | 0.00 | 33 | 1011.1 |
| 20260904232011 | 98 | 161 | 9.0 | 17.0 | 0.00 | 0.00 | 0.00 | 33 | 1011.1 |
| 20260904231521 | 98 | 131 | 8.0 | 17.0 | 0.00 | 0.00 | 0.00 | 33 | 1011.1 |
| 20260904231014 | 98 | 119 | 11.0 | 17.0 | 0.00 | 0.00 | 0.00 | 33 | 1011.0 |
| 20260904230515 | 98 | 143 | 8.0 | 16.0 | 0.00 | 0.00 | 0.00 | 32 | 1011.0 |
| 20260904230030 | 98 | 82 | 7.0 | 17.0 | 0.00 | 0.00 | 0.00 | 33 | 1010.9 |
| 20260904225519 | 98 | 119 | 7.0 | 17.0 | 0.00 | 0.00 | 0.00 | 32 | 1010.9 |
| 20260904225018 | 98 | 144 | 11.0 | 17.0 | 0.00 | 0.00 | 0.00 | 32 | 1011.0 |
| 20260904224508 | 99 | 121 | 8.0 | 17.0 | 0.00 | 0.00 | 0.00 | 32 | 1011.0 |
| 20260904224008 | 99 | 124 | 9.0 | 16.0 | 0.00 | 0.00 | 0.00 | 32 | 1010.9 |
| 20260904223508 | 99 | 151 | 10.0 | 16.0 | 0.00 | 0.00 | 0.00 | 32 | 1011.0 |
| 20260904223018 | 99 | 96 | 9.0 | 14.0 | 0.00 | 0.00 | 0.00 | 33 | 1011.0 |
| 20260904222514 | 99 | 113 | 8.0 | 17.0 | 0.00 | 0.00 | 0.00 | 33 | 1011.0 |
| 20260904222015 | 99 | 119 | 7.0 | 17.0 | 0.00 | 0.00 | 0.00 | 33 | 1010.9 |
| 20260904221533 | 99 | 147 | 9.0 | 16.0 | 0.00 | 0.00 | 0.00 | 33 | 1011.0 |
| 20260904221017 | 99 | 159 | 8.0 | 16.0 | 0.00 | 0.00 | 0.00 | 33 | 1010.9 |
| 20260904220515 | 99 | 159 | 7.0 | 15.0 | 0.00 | 0.00 | 0.00 | 33 | 1010.8 |
| 20260904220032 | 99 | 157 | 6.0 | 15.0 | 0.00 | 0.00 | 0.00 | 32 | 1010.8 |
| 20260904215517 | 99 | 155 | 7.0 | 19.0 | 0.00 | 0.00 | 0.00 | 33 | 1010.8 |
| 20260904215007 | 100 | 115 | 10.0 | 19.0 | 0.00 | 0.00 | 0.00 | 33 | 1010.9 |
| 20260904214514 | 100 | 150 | 8.0 | 15.0 | 0.00 | 0.00 | 0.00 | 34 | 1010.9 |
| 20260904214011 | 99 | 159 | 9.0 | 16.0 | 0.00 | 0.00 | 0.00 | 34 | 1011.0 |
| 20260904213511 | 100 | 138 | 9.0 | 16.0 | 0.00 | 0.00 | 0.00 | 34 | 1011.0 |
| 20260904213019 | 100 | 148 | 6.0 | 16.0 | 0.00 | 0.00 | 0.00 | 33 | 1011.0 |
| 20260904212513 | 100 | 167 | 10.0 | 16.0 | 0.00 | 0.00 | 0.00 | 34 | 1011.1 |
| 20260904212015 | 100 | 138 | 9.0 | 16.0 | 0.00 | 0.00 | 0.00 | 33 | 1011.1 |
| 20260904211528 | 100 | 165 | 10.0 | 17.0 | 0.00 | 0.00 | 0.00 | 34 | 1011.0 |
| 20260904211016 | 100 | 146 | 6.0 | 16.0 | 0.00 | 0.00 | 0.00 | 35 | 1011.0 |
| 20260904210516 | 100 | 192 | 8.0 | 15.0 | 0.00 | 0.00 | 0.00 | 34 | 1011.2 |
| 20260904210035 | 99 | 360 | 6.0 | 17.0 | 0.00 | 0.00 | 0.00 | 35 | 1011.2 |
| 20260904205516 | 100 | 360 | 10.0 | 17.0 | 0.00 | 0.00 | 0.00 | 34 | 1011.2 |
| 20260904205013 | 100 | 360 | 8.0 | 16.0 | 0.00 | 0.00 | 0.00 | 34 | 1011.3 |
| 20260904204517 | 100 | 138 | 7.0 | 15.0 | 0.00 | 0.00 | 0.00 | 36 | 1011.4 |
| 20260904204009 | 99 | 125 | 6.0 | 16.0 | 0.00 | 0.00 | 0.00 | 36 | 1011.4 |
| 20260904203512 | 99 | 86 | 9.0 | 16.0 | 0.00 | 0.00 | 0.00 | 36 | 1011.3 |
| 20260904203033 | 99 | 360 | 6.0 | 18.0 | 0.00 | 0.00 | 0.00 | 37 | 1011.4 |
| 20260904202517 | 99 | 165 | 9.0 | 18.0 | 0.00 | 0.00 | 0.00 | 37 | 1011.4 |
| 20260904202019 | 99 | 142 | 4.0 | 15.0 | 0.00 | 0.00 | 0.00 | 39 | 1011.4 |
| 20260904201531 | 99 | 138 | 8.0 | 16.0 | 0.00 | 0.00 | 0.00 | 39 | 1011.4 |
| 20260904201016 | 99 | 172 | 8.0 | 16.0 | 0.00 | 0.00 | 0.00 | 38 | 1011.6 |
| 20260904200515 | 99 | 138 | 9.0 | 16.0 | 0.00 | 0.00 | 0.00 | 38 | 1011.7 |
| 20260904200015 | 99 | 119 | 7.0 | 14.0 | 0.00 | 0.00 | 0.00 | 38 | 1011.6 |
| 20260904195513 | 99 | 180 | 7.0 | 15.0 | 0.00 | 0.00 | 0.00 | 40 | 1011.7 |
| 20260904195009 | 99 | 157 | 9.0 | 15.0 | 0.00 | 0.00 | 0.00 | 39 | 1011.7 |
| 20260904194519 | 98 | 136 | 7.0 | 17.0 | 0.00 | 0.00 | 0.00 | 38 | 1011.8 |
| 20260904194012 | 98 | 136 | 6.0 | 17.0 | 0.00 | 0.00 | 0.00 | 40 | 1011.8 |
| 20260904193512 | 98 | 153 | 10.0 | 15.0 | 0.00 | 0.00 | 0.00 | 39 | 1011.9 |
| 20260904193029 | 98 | 164 | 5.0 | 14.0 | 0.00 | 0.00 | 0.00 | 40 | 1012.0 |
| 20260904192516 | 97 | 112 | 9.0 | 14.0 | 0.00 | 0.00 | 0.00 | 39 | 1012.1 |
| 20260904192005 | 97 | 164 | 5.0 | 14.0 | 0.00 | 0.00 | 0.00 | 41 | 1012.2 |
| 20260904191507 | 97 | 136 | 7.0 | 15.0 | 0.00 | 0.00 | 0.00 | 41 | 1012.2 |
| 20260904191008 | 97 | 161 | 7.0 | 15.0 | 0.00 | 0.00 | 0.00 | 40 | 1012.3 |
| 20260904190510 | 97 | 165 | 5.0 | 13.0 | 0.00 | 0.00 | 0.00 | 41 | 1012.3 |
| 20260904190018 | 96 | 360 | 6.0 | 15.0 | 0.00 | 0.00 | 0.00 | 42 | 1012.4 |
| 20260904185511 | 96 | 360 | 10.0 | 15.0 | 0.00 | 0.00 | 0.00 | 44 | 1012.4 |
| 20260904185012 | 97 | 143 | 9.0 | 15.0 | 0.00 | 0.00 | 0.00 | 43 | 1012.4 |
| 20260904184521 | 96 | 360 | 8.0 | 15.0 | 0.00 | 0.00 | 0.00 | 44 | 1012.5 |
| 20260904184016 | 97 | 201 | 6.0 | 15.0 | 0.00 | 0.00 | 0.00 | 43 | 1012.5 |
| 20260904183515 | 96 | 190 | 7.0 | 15.0 | 0.00 | 0.00 | 0.00 | 45 | 1012.5 |
| 20260904183031 | 96 | 171 | 5.0 | 13.0 | 0.00 | 0.00 | 0.00 | 45 | 1012.6 |
| 20260904182517 | 96 | 202 | 5.0 | 13.0 | 0.00 | 0.00 | 0.00 | 47 | 1012.7 |
| 20260904182009 | 95 | 198 | 3.0 | 15.0 | 0.00 | 0.00 | 0.00 | 47 | 1012.6 |
| 20260904181511 | 95 | 360 | 7.0 | 14.0 | 0.00 | 0.00 | 0.00 | 47 | 1012.8 |
| 20260904181008 | 95 | 360 | 4.0 | 14.0 | 0.00 | 0.00 | 0.00 | 50 | 1012.9 |
| 20260904180510 | 94 | 360 | 9.0 | 15.0 | 0.00 | 0.00 | 0.00 | 48 | 1012.9 |
| 20260904180017 | 94 | 134 | 4.0 | 15.0 | 0.00 | 0.00 | 0.00 | 51 | 1012.9 |
| 20260904175512 | 93 | 210 | 6.0 | 13.0 | 0.00 | 0.00 | 0.00 | 52 | 1012.9 |
| 20260904175012 | 93 | 112 | 9.0 | 13.0 | 0.00 | 0.00 | 0.00 | 51 | 1013.0 |
| 20260904174529 | 93 | 171 | 6.0 | 12.0 | 0.00 | 0.00 | 0.00 | 51 | 1013.1 |
| 20260904174016 | 93 | 166 | 5.0 | 12.0 | 0.00 | 0.00 | 0.00 | 52 | 1013.1 |
| 20260904173517 | 92 | 360 | 7.0 | 15.0 | 0.00 | 0.00 | 0.00 | 53 | 1013.1 |
| 20260904173033 | 92 | 360 | 7.0 | 15.0 | 0.00 | 0.00 | 0.00 | 54 | 1013.2 |
| 20260904172510 | 92 | 360 | 5.0 | 15.0 | 0.00 | 0.00 | 0.00 | 55 | 1013.2 |
| 20260904172006 | 91 | 111 | 3.0 | 13.0 | 0.00 | 0.00 | 0.00 | 56 | 1013.2 |
| 20260904171514 | 91 | 360 | 8.0 | 13.0 | 0.00 | 0.00 | 0.00 | 55 | 1013.3 |
| 20260904171008 | 91 | 138 | 6.0 | 15.0 | 0.00 | 0.00 | 0.00 | 56 | 1013.3 |
| 20260904170512 | 90 | 194 | 8.0 | 15.0 | 0.00 | 0.00 | 0.00 | 56 | 1013.3 |
| 20260904170023 | 90 | 360 | 7.0 | 15.0 | 0.00 | 0.00 | 0.00 | 56 | 1013.4 |
| 20260904165514 | 90 | 161 | 9.0 | 15.0 | 0.00 | 0.00 | 0.00 | 56 | 1013.5 |
| 20260904165016 | 90 | 172 | 8.0 | 13.0 | 0.00 | 0.00 | 0.00 | 57 | 1013.5 |
| 20260904164530 | 90 | 159 | 7.0 | 14.0 | 0.00 | 0.00 | 0.00 | 57 | 1013.5 |
| 20260904164017 | 89 | 180 | 8.0 | 14.0 | 0.00 | 0.00 | 0.00 | 58 | 1013.5 |
| 20260904163520 | 89 | 360 | 7.0 | 14.0 | 0.00 | 0.00 | 0.00 | 59 | 1013.5 |
| 20260904163007 | 89 | 360 | 7.0 | 14.0 | 0.00 | 0.00 | 0.00 | 59 | 1013.4 |
| 20260904162507 | 89 | 360 | 7.0 | 17.0 | 0.00 | 0.00 | 0.00 | 59 | 1013.4 |
| 20260904162008 | 89 | 188 | 8.0 | 17.0 | 0.00 | 0.00 | 0.00 | 59 | 1013.3 |
| 20260904161515 | 89 | 192 | 6.0 | 14.0 | 0.00 | 0.00 | 0.00 | 60 | 1013.4 |
| 20260904161012 | 88 | 190 | 7.0 | 15.0 | 0.00 | 0.00 | 0.00 | 59 | 1013.3 |
| 20260904160515 | 88 | 165 | 6.0 | 15.0 | 0.00 | 0.00 | 0.00 | 60 | 1013.3 |
| 20260904160042 | 88 | 196 | 5.0 | 13.0 | 0.00 | 0.00 | 0.00 | 61 | 1013.2 |
| 20260904155517 | 88 | 186 | 5.0 | 13.0 | 0.00 | 0.00 | 0.00 | 62 | 1013.2 |
| 20260904155017 | 87 | 360 | 6.0 | 14.0 | 0.00 | 0.00 | 0.00 | 63 | 1013.2 |
| 20260904154534 | 86 | 360 | 5.0 | 14.0 | 0.00 | 0.00 | 0.00 | 64 | 1013.2 |